Location: Mat�lon
(46.2791°N, 7.1028°E)
Time: 09:33:50
(UTC+00:00)

Cosmos 2278 Rocket - Visible Passes

Search period start: 16 January 2021 00:00
Search period end: 26 January 2021 00:00
Orbit: 839 x 847 km, 71.0° (Epoch: 15 January)

Date Brightness Start Highest point End Pass type
(mag) Time Alt. Az. Time Alt. Az. Time Alt. Az.
16 Jan 4.3 04:24:03 11° N 04:28:08 22° NE 04:32:31 10° E visible
16 Jan 2.2 06:07:10 10° NNW 06:12:51 76° WSW 06:18:30 10° SSE visible
17 Jan 4.3 04:10:03 13° N 04:13:32 22° NE 04:17:51 10° E visible
17 Jan 2.2 05:52:35 10° NNW 05:58:18 79° WSW 06:03:57 10° SSE visible
18 Jan 4.3 03:56:06 15° N 03:58:56 21° NE 04:03:10 10° E visible
18 Jan 2.1 05:38:01 10° NNW 05:43:44 82° WSW 05:49:24 10° SSE visible
19 Jan 4.3 03:42:14 17° NNE 03:44:19 20° NE 03:48:29 10° E visible
19 Jan 2.1 05:24:06 13° NNW 05:29:10 85° WSW 05:34:51 10° SSE visible
20 Jan 4.3 03:28:26 18° NNE 03:29:44 20° NE 03:33:47 10° E visible
20 Jan 2.1 05:10:18 18° NNW 05:14:36 88° WSW 05:20:17 10° SSE visible
21 Jan 4.4 03:14:43 19° NE 03:15:07 19° NE 03:19:07 10° E visible
21 Jan 2.1 04:56:36 25° NNW 05:00:02 89° ENE 05:05:43 10° SSE visible
21 Jan 4.1 18:06:46 10° SE 18:07:29 12° SE 18:07:29 12° SE visible
21 Jan 4.4 19:48:16 10° SSW 19:49:25 17° SW 19:49:25 17° SW visible
22 Jan 4.5 03:01:06 18° NE 03:01:06 18° NE 03:04:25 10° E visible
22 Jan 2.1 04:43:00 36° NNW 04:45:28 86° ENE 04:51:09 10° SSE visible
22 Jan 3.8 06:25:38 10° WNW 06:28:44 15° W 06:31:51 10° SW visible
22 Jan 3.8 17:52:22 10° SE 17:54:32 16° ESE 17:54:32 16° ESE visible
22 Jan 3.6 19:33:41 10° SSW 19:36:28 30° SW 19:36:28 30° SW visible
23 Jan 4.7 02:47:37 16° ENE 02:47:37 16° ENE 02:49:43 10° E visible
23 Jan 2.2 04:29:31 53° NNW 04:30:54 83° ENE 04:36:35 10° SSE visible
23 Jan 3.7 06:11:25 11° WNW 06:14:12 16° W 06:17:29 10° SW visible
23 Jan 3.6 17:37:58 10° SE 17:41:26 17° E 17:41:33 17° E visible
23 Jan 2.7 19:19:06 10° SSW 19:23:29 55° SW 19:23:29 55° SW visible
24 Jan 5.0 02:34:14 12° ENE 02:34:14 12° ENE 02:35:01 10° E visible
24 Jan 2.2 04:16:08 78° NNE 04:16:20 80° ENE 04:22:01 10° SSE visible
24 Jan 3.6 05:58:03 15° WNW 05:59:41 17° W 06:03:07 10° SW visible
24 Jan 3.7 17:23:36 10° SE 17:26:54 16° E 17:28:30 14° ENE visible
24 Jan 2.1 19:04:32 10° SSW 19:10:13 83° WNW 19:10:25 80° NNW visible
24 Jan 4.9 20:51:24 10° W 20:52:21 13° WNW 20:52:21 13° WNW visible
25 Jan 2.6 04:02:54 58° SE 04:02:54 58° SE 04:07:26 10° SSE visible
25 Jan 3.6 05:44:48 17° W 05:45:09 17° W 05:48:43 10° SW visible
25 Jan 3.8 17:09:13 10° SE 17:12:22 15° E 17:15:22 10° ENE visible
25 Jan 2.1 18:49:58 10° SSW 18:55:39 86° WNW 18:57:17 49° NNE visible
25 Jan 4.7 20:36:43 10° W 20:39:12 17° WNW 20:39:12 17° WNW visible
